www.pogodaiklimat.ru

Погода и климат >> Архив погоды >> Великобритания >> Kirkwall


АРХИВ ПОГОДЫ в Kirkwall

Время (UTC), дата Ветер
(напр.,м/с)
 
Видим.   Явления Облачность Т
(С)
Тd
(С)
f
(%)
Тe
(С)
Тes
(С)
Комфортность P
(гПа)
Po
(гПа)
Тmin
(С)
Tmax
(С)
R
(мм)
R24
(мм)
S
(см)
02 9.07 З 2 45 км н/о +10.7 +8.5 86 +9 +9 тепло 1028.7 1025.5
01 9.07 З 3 40 км н/о +11.0 +7.6 80 +9 +9 тепло 1029.0 1025.8
03 9.07 З 2 50 км н/о +11.0 +9.3 89 +10 +10 по сезону 1028.7 1025.5
04 9.07 З 4 50 км н/о +11.3 +8.4 82 +9 +9 тепло 1028.7 1025.5
05 9.07 З 2 22 км н/о +11.4 +9.2 86 +10 +10 тепло 1028.6 1025.4
06 9.07 З 3 50 км в посл. час дождь н/о +11.1 +10.0 93 +9 +9 по сезону 1029.0 1025.8 +10.6 0.2
08 9.07 СЗ 6 11 км н/о +11.7 +9.1 84 +9 +9 тепло 1029.1 1025.9
07 9.07 СЗ 4 40 км в посл. час дождь н/о +11.7 +9.2 85 +9 +9 по сезону 1028.9 1025.7
09 9.07 З 5 50 км в посл. час дождь н/о +13.5 +9.0 74 +12 +12 по сезону 1029.2 1026.0
10 9.07 З 5 50 км н/о +13.4 +8.9 74 +11 +11 тепло 1029.1 1025.9
11 9.07 СЗ 5 50 км в посл. час дождь н/о +12.8 +8.8 77 +11 +11 по сезону 1029.1 1025.9
12 9.07 З 6 45 км н/о +13.3 +8.6 73 +11 +11 по сезону 1028.9 1025.8 0.0
14 9.07 СЗ 6 45 км н/о +14.1 +8.2 68 +12 +12 тепло 1028.9 1025.7
13 9.07 СЗ 5 26 км н/о +14.3 +8.7 69 +13 +13 тепло 1028.9 1025.7
15 9.07 СЗ 6 35 км н/о +14.3 +8.7 69 +13 +13 по сезону 1028.8 1025.7
16 9.07 СЗ 7 35 км н/о +14.4 +8.6 68 +12 +12 тепло 1028.5 1025.3
17 9.07 СЗ 6 40 км н/о +14.4 +9.5 72 +13 +13 тепло 1028.3 1025.1
18 9.07 З 5 27 км н/о +13.7 +10.3 80 +12 +12 по сезону 1028.2 1025.0 +15.1 0.0
20 9.07 З 4 11 км н/о +12.7 +11.5 92 +11 +11 тепло 1028.2 1025.0
19 9.07 З 5 20 км н/о +13.3 +10.9 85 +11 +11 тепло 1028.2 1025.0
21 9.07 З 3 3500 м слаб. морось н/о +12.6 +12.1 97 +11 +11 по сезону 1028.2 1025.0
22 9.07 З 3 4900 м слаб. морось н/о +12.6 +12.4 99 +11 +11 тепло 1028.2 1025.0
23 9.07 З 3 2600 м слаб. морось н/о +12.7 +12.5 99 +11 +11 тепло 1028.1 1024.9
00 10.07 З 3 3800 м в посл. час морось н/о +12.6 +12.5 99 +11 +11 по сезону 1027.9 1024.8 0.8
02 10.07 З 3 5000 м слаб. морось н/о +12.6 +12.5 99 +11 +11 тепло 1027.3 1024.1
01 10.07 З 3 4400 м морось н/о +12.6 +12.5 99 +11 +11 тепло 1027.7 1024.5
03 10.07 З 2 8000 м слаб. морось н/о +12.7 +12.5 99 +12 +12 тепло 1027.1 1023.9
04 10.07 З 2 3200 м в посл. час морось н/о +12.7 +12.6 99 +12 +12 тепло 1026.8 1023.7
05 10.07 З 2 8000 м дымка н/о +12.8 +12.7 99 +12 +12 тепло 1026.9 1023.7
06 10.07 З 2 3000 м дымка н/о +12.9 +12.8 99 +12 +12 по сезону 1026.8 1023.6 +12.5 3
08 10.07 С 1 11 км дымка н/о +13.4 +13.2 99 +14 +14 тепло 1026.8 1023.6
07 10.07 СВ 1 3500 м в посл. час дождь н/о +13.0 +12.9 99 +14 +14 тепло 1026.9 1023.8
09 10.07 С 2 5000 м в посл. час дождь н/о +14.0 +13.7 98 +13 +13 по сезону 1026.7 1023.5
10 10.07 С 3 50 км н/о +14.0 +13.1 94 +13 +13 тепло 1026.6 1023.5
11 10.07 СВ 2 15 км н/о +14.4 +13.2 92 +14 +14 тепло 1026.5 1023.4
12 10.07 В 2 45 км н/о +14.4 +13.1 92 +14 +14 по сезону 1026.4 1023.3 0.2
14 10.07 С 2 5000 м в посл. час дождь н/о +14.3 +13.8 97 +14 +14 тепло 1026.3 1023.2
13 10.07 В 2 11 км дымка н/о +14.1 +13.1 94 +14 +14 тепло 1026.4 1023.3
15 10.07 СВ 2 4800 м дымка н/о +14.2 +13.5 96 +14 +14 по сезону 1026.3 1023.1
16 10.07 С 2 3600 м дымка н/о +13.7 +13.3 97 +13 +13 тепло 1025.9 1022.7
17 10.07 С 3 3100 м дымка н/о +13.4 +13.2 99 +12 +12 тепло 1025.9 1022.7
18 10.07 С 3 1700 м дымка н/о +13.1 +12.9 99 +12 +12 по сезону 1025.9 1022.7 +14.7 0.6
20 10.07 СВ 2 2700 м слаб. морось н/о +13.0 +12.9 99 +12 +12 тепло 1025.8 1022.6
19 10.07 С 2 2700 м дымка н/о +12.9 +12.8 99 +12 +12 тепло 1025.9 1022.7
21 10.07 СВ 2 3600 м слаб. морось н/о +12.7 +12.6 99 +12 +12 по сезону 1025.8 1022.6
22 10.07 С 2 3600 м дождь н/о +12.7 +12.6 99 +12 +12 тепло 1025.9 1022.7
23 10.07 С 1 4600 м дождь н/о +12.7 +12.6 99 +13 +13 тепло 1025.7 1022.5
00 11.07 С 2 2400 м слаб. морось н/о +12.5 +12.5 100 +12 +12 тепло 1025.4 1022.2 3
02 11.07 С 1 500 м слаб. морось с дождем н/о +12.5 +12.5 100 +12 +12 тепло 1024.9 1021.7
01 11.07 СВ 1 900 м слаб. морось н/о +12.5 +12.5 100 +12 +12 тепло 1025.0 1021.8
03 11.07 С 2 2200 м слаб. морось н/о +12.5 +12.5 100 +11 +11 по сезону 1024.7 1021.5
04 11.07 С 2 2400 м в посл. час морось н/о +12.4 +12.4 100 +11 +11 тепло 1024.5 1021.4
05 11.07 С 2 3300 м в посл. час туман н/о +12.4 +12.4 100 +11 +11 тепло 1024.4 1021.2
06 11.07 С 3 6000 м дымка н/о +12.3 +12.3 100 +11 +11 по сезону 1024.5 1021.3 +12.2 4
08 11.07 С 3 12 км н/о +12.4 +12.3 99 +11 +11 тепло 1024.6 1021.4
07 11.07 С 3 8000 м дымка н/о +12.5 +12.5 100 +11 +11 тепло 1024.5 1021.4
09 11.07 С 3 14 км н/о +12.6 +12.4 99 +11 +11 по сезону 1024.7 1021.5
10 11.07 С 2 10 км н/о +12.9 +12.2 96 +12 +12 тепло 1024.5 1021.3
11 11.07 С 3 11 км н/о +13.3 +12.6 96 +12 +12 по сезону 1024.4 1021.2
12 11.07 С 3 8000 м дымка н/о +13.2 +12.4 95 +12 +12 по сезону 1024.5 1021.3
14 11.07 С 4 9000 м н/о +13.3 +12.4 94 +12 +12 тепло 1024.2 1021.1
13 11.07 С 3 9000 м дымка н/о +13.1 +12.6 97 +12 +12 тепло 1024.3 1021.1
15 11.07 С 4 20 км н/о +13.6 +12.2 91 +12 +12 по сезону 1024.2 1021.1
16 11.07 СЗ 4 11 км н/о +13.7 +12.3 91 +12 +12 тепло 1024.1 1021.0
17 11.07 СЗ 5 6000 м дым н/о +12.9 +12.0 94 +11 +11 тепло 1024.1 1021.0
18 11.07 СЗ 5 23 км н/о +12.8 +11.6 92 +11 +11 по сезону 1024.1 1020.9 +13.9
20 11.07 СЗ 4 26 км н/о +12.5 +11.4 93 +10 +10 тепло 1024.2 1021.0
19 11.07 СЗ 4 40 км н/о +12.8 +11.2 90 +11 +11 тепло 1024.2 1021.0
21 11.07 СЗ 4 30 км н/о +12.1 +11.1 94 +10 +10 по сезону 1024.3 1021.1
22 11.07 СЗ 3 40 км н/о +12.0 +10.8 92 +10 +10 тепло 1024.3 1021.2
23 11.07 СЗ 3 19 км н/о +12.1 +11.2 94 +10 +10 тепло 1024.4 1021.2
00 12.07 СЗ 4 2900 м дымка н/о +12.1 +11.7 97 +10 +10 по сезону 1024.3 1021.1
02 12.07 СЗ 4 9000 м дымка н/о +11.9 +11.6 98 +10 +10 тепло 1023.9 1020.7
01 12.07 С 5 5000 м в посл. час дождь н/о +12.1 +11.8 98 +10 +10 тепло 1024.0 1020.9
03 12.07 С 4 8000 м дымка н/о +11.8 +11.4 97 +10 +10 по сезону 1023.7 1020.5
04 12.07 С 4 15 км н/о +11.8 +11.3 97 +9 +9 тепло 1023.6 1020.4
05 12.07 С 4 9000 м дымка н/о +11.9 +11.3 96 +10 +10 тепло 1023.7 1020.5
06 12.07 С 5 15 км н/о +12.1 +11.4 95 +10 +10 по сезону 1023.9 1020.7 +11.7 0.0
08 12.07 С 4 14 км н/о +12.8 +11.8 94 +11 +11 тепло 1024.1 1020.9
07 12.07 С 4 22 км н/о +12.4 +11.6 95 +10 +10 по сезону 1024.1 1020.9
09 12.07 С 4 19 км н/о +13.5 +11.2 86 +12 +12 по сезону 1024.1 1021.0
10 12.07 С 4 25 км н/о +14.0 +11.3 84 +12 +12 тепло 1024.2 1021.1
11 12.07 С 4 45 км н/о +14.5 +11.0 80 +13 +13 тепло 1024.2 1021.1
12 12.07 С 3 30 км н/о +14.3 +11.9 85 +13 +13 по сезону 1024.4 1021.2
14 12.07 С 3 50 км н/о +13.9 +10.9 82 +13 +13 тепло 1024.2 1021.0
13 12.07 СВ 3 27 км н/о +13.8 +11.2 84 +13 +13 тепло 1024.2 1021.1
15 12.07 С 3 50 км н/о +14.1 +10.5 79 +13 +13 по сезону 1024.0 1020.9
16 12.07 С 2 50 км н/о +14.2 +10.5 78 +14 +14 тепло 1023.7 1020.6
17 12.07 С 2 50 км н/о +13.9 +10.3 79 +13 +13 тепло 1023.6 1020.5
18 12.07 СВ 2 45 км н/о +13.8 +10.6 81 +14 +14 тепло 1023.6 1020.5 +14.9
20 12.07 ЮВ 2 40 км н/о +13.4 +11.3 87 +13 +13 тепло 1023.7 1020.6
19 12.07 В 2 40 км н/о +13.9 +11.4 85 +14 +14 тепло 1023.6 1020.5
21 12.07 ЮВ 1 22 км н/о +12.5 +11.0 91 +12 +12 тепло 1023.8 1020.6
22 12.07 Ю 3 20 км н/о +11.2 +10.3 94 +9 +9 тепло 1023.8 1020.6
23 12.07 Ю 4 12 км н/о +10.8 +10.2 96 +8 +8 тепло 1023.6 1020.4
00 13.07 З 2 24 км н/о +10.2 +9.3 94 +9 +9 по сезону 1023.7 1020.5
02 13.07 ЮЗ 2 12 км н/о +9.6 +9.3 98 +8 +8 тепло 1023.0 1019.8
01 13.07 ЮЗ 2 8000 м дымка н/о +9.6 +9.2 97 +8 +8 по сезону 1023.3 1020.1
03 13.07 ЮЗ 4 18 км н/о +10.5 +10.2 98 +8 +8 по сезону 1022.7 1019.5
04 13.07 З 1 18 км н/о +8.9 +8.4 97 +9 +9 тепло 1022.8 1019.6
05 13.07 штиль 0 19 км н/о +11.1 +11.0 99 +10 +10 тепло 1022.4 1019.2
06 13.07 ЮЗ 1 30 км н/о +12.8 +12.0 95 +13 +13 тепло 1022.1 1019.0 +8.8
08 13.07 Ю 2 50 км н/о +15.7 +9.2 65 +16 +16 тепло 1022.2 1019.0
07 13.07 ЮЗ 2 35 км н/о +14.4 +10.9 79 +14 +14 тепло 1022.2 1019.1
09 13.07 Ю 3 35 км н/о +16.2 +9.4 64 +16 +16 тепло 1021.8 1018.7
10 13.07 Ю 4 50 км н/о +16.5 +9.9 65 +16 +16 тепло 1021.6 1018.5
11 13.07 Ю 5 30 км н/о +17.4 +10.4 63 +17 +17 тепло 1021.4 1018.3
12 13.07 Ю 6 27 км н/о +17.1 +9.8 62 +16 +16 тепло 1021.1 1018.0
14 13.07 Ю 7 40 км н/о +16.6 +9.4 62 +15 +15 тепло 1020.7 1017.6
13 13.07 Ю 6 45 км н/о +16.5 +10.4 67 +15 +15 тепло 1021.0 1017.9
15 13.07 Ю 7 40 км н/о +17.3 +11.1 67 +16 +16 тепло 1020.3 1017.2
16 13.07 Ю 6 35 км н/о +14.4 +11.2 81 +13 +13 тепло 1020.1 1017.0
17 13.07 Ю 5 45 км н/о +15.0 +12.1 83 +14 +14 тепло 1019.6 1016.4
18 13.07 Ю 5 45 км н/о +15.1 +12.4 84 +14 +14 тепло 1019.0 1015.9 +18.0
20 13.07 Ю 2 18 км н/о +14.0 +12.7 92 +14 +14 тепло 1018.8 1015.7
19 13.07 Ю 4 30 км н/о +14.4 +12.6 89 +13 +13 тепло 1018.9 1015.7
21 13.07 штиль 0 21 км н/о +13.5 +12.4 93 +13 +13 тепло 1018.7 1015.5
22 13.07 ЮЗ 1 11 км н/о +13.1 +12.5 96 +14 +14 тепло 1018.5 1015.3
23 13.07 ЮЗ 1 12 км н/о +13.1 +12.6 97 +13 +13 тепло 1018.2 1015.1
00 14.07 Ю 3 4700 м дымка н/о +12.9 +12.6 98 +12 +12 тепло 1017.7 1014.6
02 14.07 Ю 5 300 м туман н/о +11.3 +11.2 99 +9 +9 тепло 1016.4 1013.3
01 14.07 Ю 4 1100 м слаб. морось н/о +11.8 +11.7 99 +9 +9 тепло 1017.1 1014.0
03 14.07 Ю 4 11 км в посл. час туман н/о +11.2 +11.2 100 +9 +9 по сезону 1016.2 1013.0
04 14.07 Ю 4 9000 м дымка н/о +11.7 +11.6 99 +9 +9 тепло 1015.5 1012.4
05 14.07 Ю 4 11 км н/о +12.0 +11.8 99 +10 +10 тепло 1015.1 1011.9
06 14.07 Ю 4 29 км н/о +13.9 +13.3 96 +12 +12 тепло 1014.8 1011.7 +10.9 0.0
08 14.07 ЮЗ 5 50 км н/о +15.2 +11.5 79 +14 +14 тепло 1014.4 1011.3
07 14.07 ЮЗ 5 45 км н/о +14.5 +12.5 88 +13 +13 тепло 1014.5 1011.3
09 14.07 Ю 4 40 км в посл. час дождь н/о +15.6 +12.5 82 +15 +15 тепло 1014.2 1011.1
10 14.07 Ю 6 45 км н/о +17.4 +13.1 76 +17 +17 тепло 1013.7 1010.6
11 14.07 Ю 5 35 км в посл. час дождь н/о +19.2 +14.5 74 +20 +20 тепло 1013.5 1010.4
12 14.07 Ю 5 5000 м морось с дождем н/о +16.0 +13.3 84 +15 +15 тепло 1013.5 1010.4 0.0
14 14.07 Ю 6 4600 м дождь н/о +15.2 +14.5 96 +13 +13 тепло 1013.2 1010.1
13 14.07 Ю 4 10 км дождь н/о +14.9 +14.4 97 +14 +14 тепло 1013.2 1010.1
15 14.07 Ю 6 12 км слаб. морось с дождем н/о +15.3 +14.1 93 +14 +14 тепло 1012.7 1009.6
16 14.07 Ю 6 21 км в посл. час дождь н/о +14.9 +13.9 94 +13 +13 тепло 1012.8 1009.6
17 14.07 Ю 6 11 км н/о +14.6 +13.9 96 +13 +13 тепло 1012.6 1009.5
18 14.07 Ю 5 13 км в посл. час дождь н/о +14.5 +13.9 96 +13 +13 по сезону 1012.3 1009.2 +19.3 4
20 14.07 Ю 5 14 км н/о +14.1 +13.7 97 +12 +12 тепло 1011.8 1008.7
19 14.07 Ю 5 12 км н/о +14.2 +13.8 97 +12 +12 тепло 1012.1 1009.0
21 14.07 Ю 4 15 км н/о +13.9 +13.4 97 +12 +12 тепло 1011.8 1008.7
22 14.07 Ю 4 8000 м слаб. морось с дождем н/о +14.5 +14.2 98 +13 +13 тепло 1011.9 1008.7
23 14.07 Ю 5 4700 м слаб. дождь н/о +14.2 +13.7 97 +12 +12 тепло 1011.7 1008.5
00 15.07 Ю 5 4700 м дождь н/о +15.1 +15.0 99 +14 +14 тепло 1011.3 1008.2 3
02 15.07 Ю 5 22 км в посл. час дождь н/о +14.7 +14.2 97 +13 +13 тепло 1010.8 1007.7
01 15.07 Ю 5 22 км в посл. час дождь н/о +15.5 +15.2 98 +14 +14 тепло 1011.1 1008.0
03 15.07 Ю 5 7000 м ливневой дождь н/о +15.7 +15.4 98 +14 +14 тепло 1010.7 1007.6
04 15.07 Ю 4 13 км слаб. ливневой дождь н/о +15.4 +15.1 98 +14 +14 тепло 1010.6 1007.5
05 15.07 Ю 4 14 км слаб. морось с дождем н/о +15.5 +15.1 97 +15 +15 тепло 1010.5 1007.4
06 15.07 Ю 5 8000 м в посл. час дождь н/о +14.4 +14.2 99 +13 +13 тепло 1010.8 1007.7 +13.8 5
08 15.07 Ю 5 21 км н/о +16.9 +16.2 96 +16 +16 тепло 1010.8 1007.7
07 15.07 Ю 5 11 км дымка н/о +15.0 +14.8 99 +14 +14 тепло 1010.8 1007.7
09 15.07 Ю 4 24 км н/о +17.2 +15.7 91 +17 +17 тепло 1010.9 1007.8
10 15.07 Ю 2 28 км н/о +19.0 +17.0 88 +21 +21 комфорт 1010.9 1007.9
11 15.07 ЮЗ 2 35 км н/о +21.0 +17.5 80 +26 +26 душно 1010.8 1007.7
12 15.07 Ю 3 40 км н/о +20.4 +17.1 81 +24 +24 комфорт 1011.0 1008.0
14 15.07 Ю 4 35 км н/о +19.5 +16.4 82 +21 +21 комфорт 1010.8 1007.8
13 15.07 ЮВ 3 50 км н/о +20.7 +16.8 78 +25 +25 комфорт 1010.7 1007.6
15 15.07 Ю 5 10 км ливневой дождь н/о +16.8 +15.7 93 +16 +16 тепло 1010.9 1007.8
16 15.07 ЮВ 5 13 км слаб. дождь н/о +17.0 +16.1 94 +16 +16 тепло 1010.7 1007.6
17 15.07 Ю 5 15 км слаб. дождь н/о +16.7 +16.0 96 +16 +16 тепло 1010.5 1007.4
18 15.07 ЮВ 5 10 км слаб. дождь н/о +17.0 +16.5 97 +16 +16 тепло 1010.4 1007.3 +21.5 2
20 15.07 Ю 3 30 км слаб. дождь н/о +16.9 +16.3 96 +17 +17 тепло 1009.9 1006.8
19 15.07 Ю 3 40 км слаб. дождь н/о +17.2 +16.6 96 +17 +17 тепло 1009.9 1006.9
21 15.07 ЮВ 3 28 км в посл. час дождь н/о +16.6 +16.0 96 +16 +16 тепло 1009.8 1006.7
22 15.07 Ю 3 9000 м в посл. час дождь н/о +15.6 +15.0 96 +15 +15 тепло 1009.8 1006.7
23 15.07 Ю 3 10 км н/о +15.4 +14.4 94 +15 +15 тепло 1009.6 1006.5
00 16.07 ЮВ 3 9000 м дымка н/о +15.3 +14.4 94 +15 +15 тепло 1009.1 1006.0 0.6
01 16.07 Ю 5 12 км н/о +15.4 +14.4 94 +14 +14 тепло 1009.0 1005.9

 

Местоположение метеостанции Kirkwall (Великобритания): широта 58.95 долгота -2.90 высота над уровнем моря 26 м.

В архиве по умолчанию представлена погода в Kirkwall за последнюю неделю. Архивные данные за месяц целиком и за предыдущие месяцы, начиная с января 2011 года, Вы можете получить, выбрав интересующий диапазон дат из раскрывающегося списка и нажав кнопку "Ввод!".


*Определитесь, кто Вы:
робот инопланетянин человек

Внимание! Время в таблицах - всемирное. Для получения местного времени необходимо прибавить поправку, которая в Kirkwall равна 0 ч.

Смотрите также архив погоды в соседних городах и на ближайших метеорологических станциях:

Погода в Wick (Великобритания) (57 км)
Погода в Sule Skerry (Великобритания) (87 км)
Погода в Fair Isle (Великобритания) (97 км)
Погода в Altnaharra (Великобритания) (116 км)
Погода в Foula (Великобритания) (138 км)
Погода в Lossiemouth (Великобритания) (139 км)
Погода в Tain Range (Великобритания) (140 км)
Погода в Kinloss (Великобритания) (150 км)
Погода в Lerwick (Великобритания) (163 км)
Погода в Loch Glascarnoch (Великобритания) (179 км)

Пояснения к столбцам:

Ветер - указаны скорость ветра в м/с - средняя за 10 мин, порывы в срок и между сроками (в фигурных скобках) и направление, откуда дует ветер: С - северный, СВ - северо-восточный, В - восточный, ЮВ - юго-восточный, Ю - южный, ЮЗ - юго-западный, З - западный, СЗ - северо-западный.
Видимость - горизонтальная дальность видимости в метрах или километрах. При видимости от 1 до 10 км при отсутствии осадков обычно наблюдается дымка, при ухудшении видимости до 1 км и менее - туман. В сухую погоду видимость может ухудшаться дымом, пылью или мглою.
Явления - указаны атмосферные явления, наблюдавшиеся в срок или в последний час перед сроком; фигурными скобками обозначены явления, наблюдавшиеся между сроками (за 1-3 часа до срока); квадратными скобками обозначены град или гололедные отложения с указанием их диаметра в мм.
Облачность - указаны через наклонную черту общая и нижняя облачность в баллах и высота нижней границы облаков в метрах; квадратными скобками обозначены формы облаков: Ci - перистые, Cs - перисто-слоистые, Cc - перисто-кучевые, Ac - высококучевые, As - высокослоистые, Sc - слоисто-кучевые, Ns - слоисто-дождевые, Cu - кучевые, Cb - кучево-дождевые. Подробнее классификацию облаков см. в Атласе облаков (PDF).
T - Температура воздуха - температура, измеренная на высоте 2 м над землей.
Td - Температура точки росы - температура, при понижении до которой содержащийся в воздухе водяной пар достигнет насыщения.
f - Относительная влажность воздуха - влажноcть воздуха, измеренная на высоте 2 м над землей.
Te - Эффективная температура - температура, которую ощущает одетый по сезону человек в тени. Характеристика душности погоды. При расчете учитывается влияние влажности воздуха и скорости ветра на теплоощущения человека.
Tes - Эффективная температура на солнце - температура, которую ощущает человек, с поправкой на солнечный нагрев. Характеристика знойности погоды. Зависит от высоты солнца над горизонтом, облачности и скорости ветра. Ночью, в пасмурную погоду, а также при ветре 12 м/с и более поправка равна нулю.
P - Атмосферное давление - приведенное к уровню моря атмосферное давление.
Po - Атмосферное давление - измеренное на уровне метеостанции атмосферное давление.
Tmin - Минимальная температура - минимум температуры воздуха на высоте 2 м над землей.
Tmax - Максимальная температура - максимум температуры воздуха на высоте 2 м над землей.
R - Количество осадков - Количество выпавших осадков за период времени, мм. При наведении курсора мыши на число - период времени, за который выпало указанное количество осадков.
R24 - Количество осадков - Количество выпавших осадков за 24 часа, мм.
S - Снежный покров - Высота снежного покрова, см. При наведении курсора мыши на число - состояние снежного покрова и степень покрытия местности в баллах.